Weather History for Eastover, SC

Change the Weather History Date:

Sunday, May 19, 2013

  Actual Average Record
Temperature  
Mean Temperature 72 °F -  
Max Temperature 78 °F 82 °F 96 °F (2000)
Min Temperature 66 °F 62 °F 48 °F (2014)
Cooling Degree Days 7    
Growing Degree Days 22 (Base 50)    
Moisture  
Dew Point 69 °F    
Average Humidity 96    
Maximum Humidity 100    
Minimum Humidity 77    
Precipitation  
Precipitation 3.70 in - - ()
Sea Level Pressure  
Sea Level Pressure 30.10 in    
Wind  
Wind Speed 4 mph (SE)    
Max Wind Speed 14 mph    
Max Gust Speed 26 mph    
Visibility 5 miles    
Events Fog , Rain , Thunderstorm    
Averages and records for this station are not official NWS values.
T = Trace of Precipitation, MM = Missing Value Source: NWS Daily Summary

Daily Weather History Graph

Daily Weather History Graph

Search for Another Location

Airport:

Trip Planner

Search our weather history database for the weather conditions in past years. The results will help you decide how hot, cold, wet, or windy it might be!

Date:

Astronomy

May. 19, 2013 Rise Set
Actual Time 6:19 AM EDT 8:20 PM EDT
Civil Twilight 5:51 AM EDT 8:48 PM EDT
Nautical Twilight 5:17 AM EDT 9:22 PM EDT
Astronomical Twilight 4:40 AM EDT 9:59 PM EDT
Moon 2:38 PM EDT (5/19) 2:24 AM EDT (5/19)
Length of Visible Light 14h 57m
Length of Day
14h 01m
Waxing Gibbous, 65% of the Moon is Illuminated
May 19
Waxing Gibbous
May 25
Full
May 31
Last Quarter
Jun 8
New
Jun 16
First Quarter

Hourly Weather History & Observations

Time (EDT) Temp. Dew Point Humidity Pressure Visibility Wind Dir Wind Speed Gust Speed Precip Events Conditions
12:58 AM 67.8 °F 67.8 °F 100% 30.12 in 8.0 mi ESE 2.3 mph - N/A   Overcast
1:58 AM 67.1 °F 67.1 °F 100% 30.11 in 6.0 mi East 3.5 mph - N/A   Mostly Cloudy
2:58 AM 66.7 °F 66.7 °F 100% 30.09 in 6.0 mi East 2.3 mph - N/A   Mostly Cloudy
3:58 AM 66.6 °F 66.6 °F 100% 30.09 in 6.0 mi East 2.3 mph - N/A   Mostly Cloudy
4:08 AM 66.2 °F 66.2 °F 100% 30.09 in 6.0 mi East 2.3 mph - N/A   Overcast
4:28 AM 66.2 °F 66.2 °F 100% 30.09 in 7.0 mi ESE 1.2 mph - N/A   Overcast
4:58 AM 66.2 °F 66.2 °F 100% 30.09 in 4.0 mi East 2.3 mph - N/A   Mostly Cloudy
5:08 AM 66.2 °F 66.2 °F 100% 30.09 in 6.0 mi ESE 1.2 mph - N/A   Mostly Cloudy
5:28 AM 66.2 °F 66.2 °F 100% 30.10 in 7.0 mi South 1.2 mph - N/A Rain Light Rain
5:38 AM 68.0 °F 68.0 °F 100% 30.10 in 5.0 mi SE 2.3 mph - N/A Rain Light Rain
5:58 AM 68.0 °F 68.0 °F 100% 30.11 in 5.0 mi ESE 2.3 mph - 0.02 in Rain Light Rain
6:18 AM 68.0 °F 68.0 °F 100% 30.10 in 4.0 mi SE 2.3 mph - N/A Rain Light Rain
6:28 AM 66.2 °F 66.2 °F 100% 30.11 in 2.5 mi SSE 2.3 mph - N/A Rain Light Rain
6:38 AM 68.0 °F 68.0 °F 100% 30.11 in 2.5 mi Calm Calm - N/A Rain Light Rain
6:48 AM 68.0 °F 68.0 °F 100% 30.12 in 2.5 mi WSW 2.3 mph - N/A Rain Light Rain
6:58 AM 67.6 °F 67.6 °F 100% 30.13 in 0.8 mi SSW 3.5 mph - 0.14 in Rain Rain
7:08 AM 68.0 °F 68.0 °F 100% 30.12 in 2.5 mi South 4.6 mph - N/A Rain Rain
7:18 AM 68.0 °F 68.0 °F 100% 30.12 in 8.0 mi South 5.8 mph - N/A Rain Light Rain
7:28 AM 68.0 °F 68.0 °F 100% 30.12 in 10.0 mi South 4.6 mph - N/A   Mostly Cloudy
7:58 AM 68.5 °F 68.5 °F 100% 30.13 in 6.0 mi South 4.6 mph - 0.06 in Rain Light Rain
8:26 AM 69.8 °F 69.8 °F 100% 30.12 in 6.0 mi ESE 3.5 mph - N/A   Overcast
8:58 AM 70.3 °F 70.3 °F 100% 30.14 in 5.0 mi SE 5.8 mph - N/A   Mostly Cloudy
9:38 AM 73.4 °F 71.6 °F 94% 30.13 in 7.0 mi SE 8.1 mph - N/A   Mostly Cloudy
9:58 AM 74.1 °F 71.8 °F 92% 30.14 in 7.0 mi SSE 5.8 mph - N/A   Overcast
10:08 AM 73.4 °F 71.6 °F 94% 30.12 in 7.0 mi SSE 8.1 mph - N/A   Overcast
10:25 AM 75.2 °F 69.8 °F 83% 30.12 in 7.0 mi SSE 9.2 mph - N/A Rain Light Rain
10:58 AM 74.1 °F 71.2 °F 91% 30.13 in 7.0 mi Variable 2.3 mph - 0.00 in Rain Light Rain
11:08 AM 75.2 °F 71.6 °F 89% 30.12 in 10.0 mi Variable 3.5 mph - N/A   Mostly Cloudy
11:22 AM 75.2 °F 71.6 °F 89% 30.09 in 10.0 mi Variable 6.9 mph - N/A Thunderstorm Mostly Cloudy
11:26 AM 75.2 °F 71.6 °F 89% 30.12 in 10.0 mi SSW 10.4 mph - N/A Thunderstorm Mostly Cloudy
11:33 AM 77.0 °F 69.8 °F 78% 30.12 in 10.0 mi SW 8.1 mph - N/A Thunderstorm Thunderstorm
11:52 AM 78.8 °F 71.6 °F 78% 30.11 in 10.0 mi SSE 9.2 mph - N/A Thunderstorm Mostly Cloudy
11:58 AM 77.9 °F 70.3 °F 77% 30.12 in 7.0 mi SSE 10.4 mph - 0.00 in Rain , Thunderstorm Light Rain
12:18 PM 75.2 °F 71.6 °F 89% 30.11 in 2.0 mi SSW 5.8 mph - N/A Rain , Thunderstorm Rain Showers
12:22 PM 75.2 °F 71.6 °F 89% 30.11 in 1.5 mi SW 5.8 mph - N/A Rain , Thunderstorm Heavy Rain Showers
12:26 PM 75.2 °F 71.6 °F 89% 30.10 in 4.0 mi SW 3.5 mph - N/A Rain , Thunderstorm Light Rain Showers
12:34 PM 75.2 °F 71.6 °F 89% 30.10 in 7.0 mi SSW 4.6 mph - N/A Rain Light Rain
12:38 PM 75.2 °F 71.6 °F 89% 30.10 in 3.0 mi South 5.8 mph - N/A Rain Rain Showers
12:45 PM 75.2 °F 71.6 °F 89% 30.09 in 7.0 mi South 1.2 mph - N/A Rain Light Rain Showers
12:58 PM 73.4 °F 71.6 °F 94% 30.09 in 10.0 mi Calm Calm - 0.28 in   Mostly Cloudy
1:32 PM 75.2 °F 71.6 °F 89% 30.07 in 5.0 mi NNE 5.8 mph - N/A Rain , Thunderstorm Light Thunderstorms and Rain
1:39 PM 77.0 °F 71.6 °F 83% 30.07 in 2.0 mi North 2.3 mph - N/A Rain , Thunderstorm Thunderstorms and Rain
1:42 PM 75.2 °F 71.6 °F 89% 30.07 in 1.0 mi Variable 4.6 mph - N/A Rain , Thunderstorm Heavy Thunderstorms and Rain
1:46 PM 75.2 °F 71.6 °F 89% 30.08 in 0.5 mi Variable 4.6 mph - N/A Fog , Rain , Thunderstorm Heavy Thunderstorms and Rain
1:58 PM 72.3 °F 68.0 °F 86% 30.09 in 1.0 mi Calm Calm - 0.77 in Rain , Thunderstorm Heavy Thunderstorms and Rain
2:08 PM 71.6 °F 69.8 °F 94% 30.09 in 0.5 mi South 8.1 mph - N/A Fog , Rain , Thunderstorm Heavy Thunderstorms and Rain
2:21 PM 69.8 °F 69.8 °F 100% 30.07 in 5.0 mi SE 8.1 mph 26.5 mph N/A Rain , Thunderstorm Light Thunderstorms and Rain
2:38 PM 69.8 °F 69.8 °F 100% 30.08 in 7.0 mi North 5.8 mph - N/A Rain , Thunderstorm Light Thunderstorms and Rain
2:50 PM 69.8 °F 69.8 °F 100% 30.08 in 10.0 mi NNW 9.2 mph - N/A Thunderstorm Thunderstorm
2:58 PM 69.8 °F 69.8 °F 100% 30.08 in 7.0 mi NNW 5.8 mph - 0.78 in Rain , Thunderstorm Light Thunderstorms and Rain
3:28 PM 71.6 °F 71.6 °F 100% 30.08 in 2.5 mi East 10.4 mph - N/A Rain , Thunderstorm Light Thunderstorms and Rain
3:30 PM 71.6 °F 71.6 °F 100% 30.09 in 1.5 mi East 9.2 mph - N/A Rain , Thunderstorm Light Thunderstorms and Rain
3:38 PM 69.8 °F 69.8 °F 100% 30.08 in 2.0 mi ESE 10.4 mph - N/A Rain , Thunderstorm Thunderstorms and Rain
3:46 PM 69.8 °F 69.8 °F 100% 30.10 in 1.0 mi ESE 11.5 mph - N/A Rain , Thunderstorm Heavy Thunderstorms and Rain
3:48 PM 69.8 °F 69.8 °F 100% 30.10 in 0.8 mi East 6.9 mph - N/A Rain , Thunderstorm Heavy Thunderstorms and Rain
3:58 PM 68.7 °F 68.7 °F 100% 30.10 in 0.5 mi East 13.8 mph - 0.34 in Fog , Rain , Thunderstorm Heavy Thunderstorms and Rain
4:08 PM 68.0 °F 68.0 °F 100% 30.09 in 1.0 mi SE 9.2 mph - N/A Rain , Thunderstorm Thunderstorms and Rain
4:38 PM 68.0 °F 68.0 °F 100% 30.09 in 1.5 mi SSE 6.9 mph - N/A Rain , Thunderstorm Thunderstorms and Rain
4:45 PM 68.0 °F 68.0 °F 100% 30.09 in 2.0 mi SSE 2.3 mph - N/A Rain , Thunderstorm Light Thunderstorms and Rain
4:48 PM 68.0 °F 68.0 °F 100% 30.09 in 2.0 mi South 3.5 mph - N/A Rain , Thunderstorm Thunderstorms and Rain
4:58 PM 68.4 °F 68.4 °F 100% 30.10 in 2.0 mi SSE 5.8 mph - 1.03 in Rain , Thunderstorm Light Thunderstorms and Rain
5:08 PM 68.0 °F 68.0 °F 100% 30.09 in 3.0 mi SE 5.8 mph - N/A Rain , Thunderstorm Light Rain
5:58 PM 68.4 °F 68.4 °F 100% 30.09 in 8.0 mi East 4.6 mph - 0.14 in Rain Light Rain
6:38 PM 68.0 °F 68.0 °F 100% 30.07 in 7.0 mi SE 3.5 mph - N/A Rain Light Rain
6:58 PM 68.7 °F 68.7 °F 100% 30.07 in 8.0 mi SE 5.8 mph - 0.12 in Rain Light Rain
7:18 PM 69.8 °F 69.8 °F 100% 30.06 in 10.0 mi SE 3.5 mph - N/A Rain Light Rain
7:28 PM 69.8 °F 69.8 °F 100% 30.06 in 10.0 mi ESE 3.5 mph - N/A Rain Light Rain
7:58 PM 69.3 °F 69.3 °F 100% 30.06 in 10.0 mi SE 4.6 mph - 0.01 in   Scattered Clouds
8:28 PM 68.0 °F 68.0 °F 100% 30.07 in 6.0 mi SE 4.6 mph - N/A   Mostly Cloudy
8:38 PM 68.0 °F 68.0 °F 100% 30.07 in 5.0 mi SE 4.6 mph - N/A   Mostly Cloudy
8:58 PM 68.4 °F 68.4 °F 100% 30.08 in 6.0 mi SE 4.6 mph - 0.01 in   Mostly Cloudy
9:58 PM 69.1 °F 69.1 °F 100% 30.09 in 6.0 mi SE 5.8 mph - N/A   Overcast
10:18 PM 69.8 °F 69.8 °F 100% 30.10 in 7.0 mi ESE 4.6 mph - N/A   Overcast
10:48 PM 69.8 °F 69.8 °F 100% 30.10 in 7.0 mi ESE 1.2 mph - N/A   Overcast
10:58 PM 69.1 °F 69.1 °F 100% 30.11 in 6.0 mi East 1.2 mph - N/A   Overcast
11:38 PM 68.0 °F 68.0 °F 100% 30.10 in 4.0 mi East 3.5 mph - N/A   Mostly Cloudy
11:58 PM 68.9 °F 68.9 °F 100% 30.11 in 4.0 mi SE 2.3 mph - N/A   Overcast